RH
5 4 4 3 4 9 7 4 5 7 13 12 6 8 10 9 7 6 6 5 5 5 7 9 7 7 9 8 11 25 25 23 25 29 44 53 58 47 54 54 60 57 57 55 56
5 4 4 4 4 3 6 10 4 5 7 15 10 6 8 10 9 8 6 6 5 5 5 6 6 7 8 8 16 24 23 22 27 34 36 50 65 56 48 49 50 51 51 59 60
4 5 4 4 4 4 3 4 10 4 4 7 16 9 6 9 9 10 8 7 6 6 6 5 5 5 6 8 17 20 20 21 27 32 38 44 46 46 52 56 48 41 51 58 66
3 4 4 4 4 4 4 3 4 10 4 4 7 16 8 8 12 12 11 8 8 7 6 6 6 7 7 6 19 19 18 20 25 35 42 37 29 35 33 37 45 62 68 72 76
2 2 3 3 3 4 4 4 3 4 10 4 4 12 13 8 11 14 17 12 9 8 8 8 7 14 15 12 21 20 20 22 33 47 42 28 28 29 28 27 39 53 62 67 79
2 2 2 2 2 3 3 3 3 3 4 10 4 5 14 9 10 13 14 13 12 14 15 9 10 21 21 21 20 20 20 20 33 36 33 38 26 28 38 46 61 69 77 94 98
2 2 1 1 2 2 2 2 3 3 3 4 9 3 12 10 10 12 13 13 11 12 12 12 24 22 21 20 22 20 21 24 21 31 31 36 33 38 47 57 78 88 97 100 100
1 1 2 1 1 1 1 2 2 2 3 3 6 6 9 11 10 10 17 20 18 11 12 19 21 20 23 21 22 19 20 21 18 22 34 36 44 44 54 68 96 100 100 99 99
1 1 1 1 1 1 1 1 1 2 2 3 3 8 5 9 10 11 14 21 19 12 12 15 16 17 20 22 21 20 20 18 19 23 41 47 44 45 61 84 100 98 99 99 100
1 1 1 1 1 1 1 1 1 1 2 2 3 4 7 7 8 10 11 16 19 17 10 11 12 15 16 17 13 11 14 16 18 19 21 46 44 47 66 94 99 97 100 100 96
1 1 1 1 1 1 1 1 1 1 1 2 2 3 8 7 8 13 12 12 15 16 15 10 13 9 7 6 11 19 19 19 21 34 44 49 50 50 69 94 98 97 99 98 100
1 1 1 1 1 1 1 1 1 7 2 1 2 2 6 9 7 8 11 12 13 15 13 13 13 12 7 8 19 20 21 23 36 55 56 55 53 62 89 97 100 97 98 97 100
2 2 2 2 1 1 1 1 2 2 5 3 3 2 3 9 7 8 9 9 10 11 12 14 15 13 13 14 18 18 18 19 31 47 52 41 74 92 92 97 99 97 100 98 96
4 4 4 2 2 3 2 2 4 2 8 1 2 2 3 5 9 7 6 9 7 7 9 13 12 12 14 17 20 20 17 17 23 34 39 45 79 79 78 71 78 60 98 99 98
6 5 5 4 6 6 20 14 20 13 25 2 2 2 2 3 6 8 5 9 8 7 8 8 7 7 11 15 18 17 16 16 18 24 39 58 61 89 74 64 61 68 90 100 100
8 7 7 6 7 8 21 17 44 23 60 2 8 3 3 3 2 7 6 7 7 13 10 8 6 7 7 13 16 16 16 16 16 21 36 36 52 86 74 71 58 71 85 99 99
10 10 9 13 17 12 64 74 51 97 6 4 16 12 5 4 3 6 8 10 9 13 16 9 7 9 12 14 14 15 15 19 22 25 35 48 53 70 73 64 75 77 82 98 100
14 12 14 16 21 20 51 90 87 31 7 23 26 16 14 10 6 8 10 7 11 11 11 16 12 7 12 13 14 14 14 18 30 45 58 53 73 57 63 78 76 85 87 96 100
21 20 11 30 36 28 18 91 58 27 50 21 21 32 26 20 18 14 12 8 5 5 12 12 10 6 9 13 14 14 14 15 17 32 54 74 61 73 62 74 78 87 98 97 99
36 45 16 59 47 37 20 26 69 59 63 52 34 26 30 23 26 24 13 8 9 8 7 10 9 6 4 10 14 14 14 18 20 33 70 81 85 63 55 64 76 74 96 97 99
60 69 25 56 68 49 32 13 24 48 68 60 74 38 36 39 27 25 22 10 7 7 11 11 12 11 9 11 13 15 17 20 22 20 70 83 68 54 64 71 62 56 93 98 90
83 91 42 67 76 61 42 30 31 12 42 63 60 61 59 52 32 28 24 18 10 9 11 10 10 10 10 14 14 17 17 18 21 29 43 54 71 66 70 66 69 56 71 72 48
84 88 67 72 89 74 66 67 51 24 13 26 46 70 80 64 56 35 21 14 15 12 10 10 14 15 13 13 16 14 17 17 20 24 42 61 79 86 85 82 74 49 27 36 19
92 99 88 85 92 77 71 59 49 36 20 11 23 42 74 64 69 43 27 23 16 17 13 9 12 15 15 15 19 17 14 18 21 25 46 47 58 90 92 86 73 26 24 23 23
99 96 73 75 97 96 82 93 69 78 51 31 22 34 54 68 61 48 38 29 21 16 15 14 14 14 11 12 21 17 18 19 19 23 27 32 32 42 72 75 48 25 30 24 22
97 87 97 83 76 80 98 86 75 61 53 24 21 56 74 78 71 50 60 45 26 18 16 14 16 14 12 12 20 23 20 19 19 22 24 36 47 59 84 78 47 26 22 19 7
81 78 97 78 75 84 74 74 66 59 44 21 27 44 67 64 76 77 68 49 40 23 17 15 16 14 20 22 22 24 23 20 22 23 23 33 28 52 70 65 34 16 18 8 3
Wind_Speed
20 21 19 18 18 17 16 16 15 15 15 13 13 10 11 12 12 12 10 15 13 13 15 16 13 13 12 9 8 4 9 15 14 14 5 8 8 3 4 3 1 3 2 4 6
21 21 23 21 21 20 17 16 17 16 16 15 15 12 11 12 11 10 14 14 14 14 15 14 14 13 14 7 6 8 9 15 12 4 3 6 11 4 1 2 3 3 3 4 4
22 23 23 24 23 22 20 18 17 17 17 17 16 15 11 11 11 12 14 15 15 14 14 14 14 13 12 12 9 7 9 21 11 8 5 9 2 4 2 3 5 5 4 5 6
22 23 23 24 25 23 23 21 19 18 18 18 17 17 12 11 8 12 13 14 15 15 15 14 13 12 14 12 9 8 15 14 10 7 8 2 4 4 10 8 5 4 3 7 9
23 23 24 24 25 26 24 23 21 21 19 19 18 18 16 14 12 11 13 13 15 13 13 13 13 14 11 13 7 8 14 7 9 12 7 2 5 11 10 8 6 7 6 7 9
24 23 23 24 24 25 26 25 23 21 21 20 19 20 19 15 16 15 9 11 11 12 13 12 10 11 11 7 8 11 13 10 7 12 9 5 12 11 10 7 4 4 4 4 3
25 26 25 24 26 25 26 25 24 24 23 23 21 20 21 12 16 19 13 9 10 9 10 13 17 16 13 13 13 15 9 9 11 10 10 10 9 9 9 4 3 3 5 5 4
25 26 28 26 25 26 24 25 25 28 24 25 23 21 24 19 23 18 20 13 11 11 14 21 23 19 14 13 13 14 15 13 12 13 13 13 12 8 10 6 4 8 9 7 6
25 24 26 28 28 26 25 24 27 28 26 26 25 22 24 22 21 19 21 17 14 13 18 21 22 19 16 16 16 17 20 12 11 12 20 18 13 14 12 8 7 5 5 5 7
25 23 23 26 28 28 24 25 27 28 30 28 28 23 22 15 24 20 23 19 19 17 18 22 19 18 18 17 17 15 19 15 15 19 26 25 19 12 12 11 8 7 6 6 8
25 24 22 23 24 27 24 24 27 30 34 33 30 27 17 19 21 22 23 23 22 20 21 22 20 22 14 15 6 8 10 14 26 16 23 22 15 13 12 10 11 9 8 9 9
24 24 22 22 20 22 24 21 28 30 35 37 32 33 22 21 22 25 25 25 27 26 22 19 23 16 12 13 15 14 18 21 15 17 18 15 14 11 8 9 9 12 11 10 9
24 22 21 20 19 16 19 20 24 32 31 31 32 35 26 27 26 23 22 25 27 29 25 23 16 8 14 14 17 16 22 20 21 20 14 14 12 12 9 8 10 10 9 11 12
23 20 20 18 15 15 15 20 23 25 18 28 30 37 34 32 37 24 22 20 26 27 28 23 27 19 14 20 15 20 11 19 21 22 22 19 5 11 7 4 6 10 10 11 13
23 19 18 18 13 10 13 18 14 10 3 11 18 24 29 41 38 34 28 27 28 25 32 29 28 21 22 25 13 21 16 17 12 18 16 24 4 4 8 2 5 19 14 12 14
23 19 17 18 12 10 14 13 10 7 8 9 13 25 32 35 38 28 29 31 28 27 19 24 21 18 22 20 17 16 20 16 16 9 4 10 19 6 5 2 5 17 13 13 13
24 20 18 17 13 9 13 8 9 10 8 7 16 21 29 33 39 38 28 43 37 25 29 25 31 26 23 21 19 21 22 7 5 4 4 11 11 6 5 10 8 9 8 11 12
25 23 20 16 15 14 18 14 12 10 18 4 10 23 24 26 40 42 33 40 43 28 20 31 18 33 30 29 25 24 23 16 6 4 5 9 3 7 8 7 9 10 6 11 12
28 25 21 16 19 18 21 26 14 12 7 17 7 23 26 25 17 36 35 39 40 39 26 19 27 28 32 27 24 24 30 24 22 4 6 4 6 10 12 9 8 11 9 12 15
30 28 21 21 22 24 28 41 30 15 10 5 7 3 22 27 22 17 41 40 42 39 36 17 11 21 25 27 24 25 24 16 14 5 3 5 6 11 11 17 14 14 13 17 16
31 32 21 24 26 32 41 47 27 26 14 5 10 10 11 7 28 28 17 35 43 40 40 37 18 7 17 27 31 29 28 21 13 18 5 4 5 10 11 12 9 12 14 16 10
32 33 24 30 33 41 48 46 31 32 37 26 16 11 6 10 21 32 34 26 31 44 41 40 21 32 25 16 31 28 31 30 18 6 5 8 6 9 8 10 8 10 13 12 11
34 35 27 30 40 44 41 34 33 36 34 36 25 16 14 7 13 26 41 36 20 25 39 37 27 10 15 20 19 36 37 29 27 23 12 11 6 16 15 13 10 11 14 14 8
34 32 34 37 39 39 39 41 38 35 39 39 42 32 19 13 3 8 32 22 28 24 27 36 33 33 18 10 23 32 37 31 23 13 13 8 17 24 22 18 12 13 12 9 7
37 32 38 33 37 35 35 27 28 24 28 25 35 40 29 25 9 5 3 21 26 26 29 36 38 34 31 27 19 32 26 27 22 12 11 15 14 18 23 16 9 12 12 9 6
38 40 28 40 30 41 29 37 35 31 32 33 39 22 18 20 10 12 15 3 28 26 35 39 33 34 30 27 24 15 27 28 25 21 13 15 18 16 20 16 14 12 11 9 8
40 40 30 40 42 33 33 37 32 28 36 40 34 37 33 13 12 18 22 17 20 25 25 32 35 34 26 22 23 17 25 28 22 18 19 21 10 23 23 16 13 13 11 10 9
Wind_Direction
266 272 272 273 274 271 271 264 264 262 264 268 268 258 256 251 248 251 238 239 232 216 216 225 224 223 220 219 233 247 274 292 320 297 204 179 180 209 216 266 271 331 301 228 211
261 261 269 268 269 270 269 273 267 261 257 260 269 260 252 250 244 245 235 236 233 223 216 213 215 220 225 213 190 218 268 296 323 253 274 186 189 219 245 333 315 309 297 221 208
261 261 260 265 264 267 268 265 268 264 259 255 258 263 247 246 234 232 238 231 230 225 218 213 212 212 217 203 183 217 282 305 280 257 180 165 149 177 300 298 259 299 285 238 218
263 262 260 259 263 263 265 264 262 266 262 254 250 260 249 232 227 227 230 231 231 224 217 212 207 213 208 195 171 273 302 320 240 218 176 151 7 360 327 305 246 214 216 209 208
264 263 263 263 259 261 261 262 261 261 263 257 250 246 253 229 216 213 218 218 218 215 214 211 205 202 211 180 230 263 307 332 227 190 190 295 355 348 338 310 276 243 240 249 235
265 263 262 263 262 260 261 259 258 258 260 262 252 243 244 235 226 222 227 212 214 208 205 202 178 198 179 233 277 276 287 299 219 225 251 266 315 323 311 310 286 279 302 239 233
261 266 264 260 261 260 260 261 263 257 253 255 257 245 239 226 231 218 192 205 198 194 186 160 171 189 200 213 254 246 292 275 266 251 264 263 297 300 301 287 288 288 270 212 268
261 260 264 266 260 261 258 259 257 257 252 253 252 248 236 228 229 213 213 217 218 216 185 177 187 198 219 222 232 234 234 251 262 252 255 255 258 267 269 264 220 207 210 215 251
264 261 260 263 266 262 260 255 253 256 253 250 250 251 242 232 232 224 222 214 215 214 203 203 203 212 226 238 239 239 251 253 283 266 251 233 241 250 251 240 212 207 216 258 265
267 266 263 261 264 265 260 253 251 249 251 247 246 243 236 215 229 215 224 221 220 221 212 222 228 225 220 225 231 246 250 261 269 276 257 238 242 244 241 230 222 228 239 265 280
268 268 267 265 263 265 263 252 254 249 243 240 238 233 231 228 215 212 224 219 221 220 223 221 229 233 238 239 248 264 275 281 305 258 223 216 222 235 226 218 226 229 248 266 274
271 272 274 272 268 264 262 256 252 247 241 242 239 236 220 225 222 213 210 208 218 226 216 217 234 241 238 235 236 257 276 278 269 191 200 198 209 220 218 228 230 233 245 258 268
272 274 275 274 273 267 263 255 246 250 256 239 243 240 216 228 225 222 219 207 214 216 220 227 247 230 216 220 238 257 266 271 226 201 207 222 206 216 229 234 238 237 233 247 261
270 274 276 271 275 268 256 251 242 248 262 255 248 242 227 222 236 209 219 216 210 215 221 230 238 232 221 224 233 267 259 284 231 220 215 208 170 237 246 249 266 301 251 246 262
265 267 269 266 264 264 246 250 248 244 297 247 235 230 233 223 230 224 216 220 215 214 208 227 239 222 222 222 232 255 282 271 261 232 210 202 239 230 188 280 318 281 269 242 251
262 260 258 264 254 243 240 256 209 199 247 220 214 212 214 211 225 226 215 215 224 219 228 240 242 234 226 235 236 252 281 269 255 236 172 203 205 198 218 311 313 290 247 233 242
258 256 252 252 248 222 216 225 188 217 220 235 217 219 220 206 210 216 208 204 210 210 220 231 228 218 220 232 235 244 255 259 255 259 180 144 190 173 234 211 242 249 235 214 219
255 251 246 242 236 219 199 191 222 238 208 152 189 218 221 207 212 203 208 209 213 203 213 218 242 221 218 226 232 232 242 231 201 190 146 184 194 260 266 234 230 230 215 207 222
250 248 237 231 226 214 206 206 225 212 265 246 210 205 210 209 220 208 204 210 217 208 207 206 234 233 223 220 224 232 238 248 240 199 112 200 245 252 243 234 234 233 201 206 220
246 245 228 224 221 218 219 222 223 175 219 265 240 201 211 214 205 209 204 211 215 215 214 211 243 245 224 218 221 235 233 224 219 169 115 224 256 231 215 224 214 226 202 202 209
237 241 213 222 220 221 226 224 236 210 239 249 204 231 204 239 220 211 209 214 217 212 216 219 224 209 220 224 218 222 229 229 239 227 146 156 245 247 240 208 223 217 195 204 211
234 236 209 219 222 224 230 234 241 229 235 251 248 274 272 276 242 223 215 219 223 216 211 219 228 240 230 223 222 219 225 227 232 224 144 171 186 173 184 179 207 204 196 196 192
234 233 212 223 227 227 235 244 247 246 241 246 244 239 210 274 284 236 226 228 211 219 213 212 220 221 245 242 236 225 225 232 230 244 185 153 193 163 179 187 204 200 182 173 146
227 228 221 220 228 232 238 246 250 251 251 247 243 239 250 274 256 251 226 240 216 230 221 214 215 222 210 211 223 218 223 228 226 211 175 182 168 179 186 203 205 178 167 143 128
221 225 223 226 223 231 236 237 245 246 255 241 242 238 245 275 291 195 284 232 224 219 220 214 216 223 232 244 241 207 212 218 224 237 237 256 226 195 194 199 203 168 154 151 138
214 221 210 228 229 229 230 237 242 245 251 238 235 225 230 239 243 277 312 27 232 218 220 222 220 222 229 233 236 233 228 228 224 217 225 191 163 180 180 192 183 165 165 154 144
219 216 226 220 226 227 232 239 252 251 246 242 237 238 232 192 273 284 273 238 234 221 235 215 208 208 215 222 229 236 229 222 207 209 210 178 201 182 191 187 184 171 164 148 142